GFSGBSN_700_rhum_291.txt.gz
RH
33 34 30 20 10 6 5 4 4 3 3 3 3 3 3 3 3 3 3 3 3 3 3 3 3 3 4 3 4 4 4 4 4 4 5 5 5 4 4 7 8 7 8 17 29 8 4
46 44 40 36 30 21 12 7 5 4 3 3 3 3 3 3 3 3 3 3 3 3 4 4 4 4 4 4 4 5 5 5 5 5 6 6 6 6 6 5 7 9 10 5 5 4 4
48 48 51 51 49 44 33 19 9 5 4 3 3 3 4 4 4 4 4 4 4 4 4 4 5 5 5 5 6 6 6 6 6 7 7 8 8 8 8 9 11 7 6 7 5 16 32
59 56 58 59 56 50 44 35 27 15 6 4 3 4 4 4 4 4 4 4 4 5 5 5 5 6 6 6 6 7 7 8 8 9 9 10 9 8 7 7 6 11 24 28 21 28 27
69 64 62 59 57 50 46 40 24 11 6 4 3 4 4 4 4 4 4 5 5 5 6 6 6 6 7 7 8 8 9 10 11 11 11 11 9 7 7 13 37 28 23 19 17 20 27
72 67 62 60 58 56 52 39 21 10 5 3 3 3 4 4 4 4 5 5 6 6 6 6 7 8 9 10 10 10 11 12 14 14 12 10 8 8 38 49 39 33 36 28 24 24 28
73 69 65 62 61 55 44 26 14 6 4 3 3 3 4 4 4 4 5 6 6 6 6 7 9 10 10 10 11 12 14 16 16 14 10 9 9 22 22 22 9 7 28 25 23 26 31
70 67 64 63 60 59 55 46 35 18 8 4 3 3 4 4 4 5 6 6 7 7 8 9 10 10 10 12 14 17 18 17 14 11 10 15 20 23 13 9 8 13 32 32 28 31 35
79 73 70 68 58 37 21 14 9 5 3 3 3 4 4 4 5 6 6 7 8 10 11 12 12 13 16 20 23 23 19 16 12 10 12 10 16 14 9 8 14 25 38 42 39 36 40
86 81 75 72 67 46 19 5 3 3 3 4 4 4 5 5 6 7 8 9 10 13 13 29 24 28 28 26 22 19 16 14 14 12 11 10 20 16 12 21 22 28 44 41 52 53 47
88 82 78 72 64 37 13 4 4 4 4 5 5 6 7 8 9 9 10 12 13 15 54 45 38 28 23 23 19 19 16 12 10 11 13 24 24 31 31 30 62 58 41 36 40 43 49
92 81 72 69 48 20 5 4 5 6 6 7 8 9 10 11 13 13 15 15 14 26 54 28 22 22 24 21 18 15 13 13 13 17 23 40 40 40 45 63 62 44 43 50 51 50 69
88 73 69 56 18 4 5 6 8 8 10 11 13 15 16 18 18 19 18 13 27 32 23 25 21 19 18 19 16 15 15 25 28 26 26 39 39 52 57 52 50 46 64 64 51 63 60
78 70 53 14 4 6 8 10 12 15 18 19 19 20 19 20 20 19 15 11 22 20 21 17 15 16 16 30 39 26 36 40 54 39 63 50 46 48 62 65 62 54 63 61 68 54 40
72 60 14 5 8 10 14 18 19 19 20 20 20 20 20 21 20 19 15 26 22 19 15 13 14 18 33 42 25 41 54 61 76 35 62 59 51 60 62 62 60 57 56 79 72 51 61
67 14 6 10 15 19 19 18 19 18 19 19 19 20 20 20 21 20 17 24 22 18 15 14 23 24 28 42 54 55 61 78 93 61 59 86 81 60 54 70 76 82 72 69 55 78 66
16 8 12 19 19 18 19 19 19 19 19 20 20 21 21 23 24 22 27 36 32 24 17 22 32 42 40 48 54 53 64 74 80 97 79 93 88 65 59 65 85 74 84 87 85 68 66
8 16 19 19 19 20 20 20 19 19 19 21 22 26 24 26 26 34 29 27 21 21 22 28 28 31 58 57 62 58 69 75 75 88 86 89 94 69 56 70 62 62 92 91 91 50 70
19 19 19 20 20 20 21 22 22 22 21 20 22 24 26 33 38 44 49 30 30 30 37 45 45 46 68 68 66 63 61 76 84 81 94 94 88 74 60 84 79 100 70 74 89 100 82
19 20 20 17 17 18 19 23 25 24 21 21 26 41 57 56 52 44 78 77 67 55 59 56 58 56 74 74 70 76 72 83 91 84 93 93 94 96 71 67 98 99 99 86 86 98 94
19 18 12 10 10 10 17 27 28 24 21 28 45 89 58 65 89 88 90 92 90 91 88 76 87 92 83 77 71 63 69 74 82 86 90 95 90 73 89 97 100 99 92 92 88 98 100
17 8 6 6 5 8 19 32 27 24 29 44 58 62 79 72 98 82 100 100 100 96 99 95 97 91 90 98 84 84 82 75 76 76 81 97 92 97 89 94 100 100 100 98 92 94 95
7 4 4 4 6 10 32 33 26 30 38 62 82 76 74 90 100 100 100 97 97 100 90 92 95 93 94 91 95 96 100 100 97 96 81 98 99 95 74 97 94 92 100 100 95 89 93
3 3 4 5 6 24 39 32 32 41 41 60 65 66 93 82 100 92 95 99 99 96 100 98 97 94 78 96 83 96 98 96 91 94 97 95 95 92 85 98 82 96 83 93 94 92 94
2 3 4 5 13 40 39 32 40 42 30 41 58 91 100 91 100 99 100 100 100 100 99 96 82 72 72 98 100 98 98 97 80 100 100 100 100 95 95 63 93 99 85 97 94 100 93
3 4 5 12 35 42 32 38 43 33 15 9 80 99 100 100 100 100 99 91 90 99 100 98 96 87 93 100 98 98 71 64 82 100 81 99 99 100 99 76 67 100 82 93 95 100 85
4 6 8 23 44 31 39 44 34 14 8 12 72 96 100 99 91 96 100 100 96 96 97 94 83 86 85 96 100 97 78 81 66 64 100 100 100 100 95 81 100 91 90 96 98 98 94
6 7 16 44 28 41 44 33 13 9 10 13 23 74 93 85 86 83 91 97 95 100 100 99 99 83 94 100 100 97 85 98 85 87 90 100 98 100 99 97 93 93 97 96 96 97 93
7 14 42 25 43 44 30 11 10 11 13 15 15 20 59 94 100 100 100 97 100 100 99 97 97 99 99 100 97 99 94 97 94 98 96 100 99 98 100 100 100 100 100 100 98 93 90

GFSGBSN_700_rhum_294.txt.gz
RH
46 43 39 37 36 32 24 15 8 5 4 3 3 3 3 3 3 3 3 3 3 3 3 3 3 3 3 3 3 3 4 4 4 4 4 4 5 6 6 8 13 18 17 15 15 8 6
47 47 48 50 49 48 45 40 32 20 11 6 4 3 3 3 4 4 4 4 4 3 3 3 3 4 4 4 4 4 4 5 5 5 5 4 6 7 7 7 8 12 15 12 8 5 5
56 53 53 55 55 51 45 40 34 28 22 14 7 4 4 4 4 4 4 4 4 4 4 4 4 4 4 4 4 4 5 5 6 6 6 6 8 8 9 9 12 11 13 11 7 9 12
63 62 60 56 54 53 51 49 44 38 26 14 8 5 4 4 4 4 4 4 4 4 4 5 5 5 5 5 5 5 5 6 7 8 8 9 9 10 10 10 10 10 10 13 10 21 24
67 67 64 60 56 55 52 50 41 34 24 12 6 4 4 4 4 4 4 4 4 5 5 5 5 5 5 6 6 6 7 8 9 9 10 11 11 11 10 10 16 25 24 23 22 19 19
69 69 67 61 58 55 52 50 45 35 26 20 17 9 4 4 4 4 4 5 5 5 5 6 6 6 7 8 8 8 9 10 11 11 12 13 12 11 12 35 39 39 37 34 34 23 21
72 68 66 63 61 58 50 45 46 45 42 32 15 4 4 4 4 5 5 5 5 5 6 6 7 8 8 8 8 9 10 11 13 16 16 15 13 12 26 32 36 36 28 11 10 12 19
76 72 72 67 64 60 56 43 23 7 5 4 4 4 5 5 5 5 6 6 7 7 8 8 8 9 9 10 11 11 14 17 17 16 17 14 18 20 20 18 15 11 10 13 14 20 32
72 73 74 68 64 59 59 47 18 5 4 5 5 5 6 6 6 7 7 8 9 10 11 11 12 13 14 15 16 20 21 21 19 15 16 13 12 12 13 14 13 14 26 23 26 33 31
75 77 74 67 59 59 53 36 8 5 6 6 7 7 8 8 8 10 10 12 13 15 14 22 24 24 20 22 26 23 23 19 15 16 14 12 16 20 20 19 17 19 28 37 42 38 36
70 76 74 62 60 57 40 10 5 7 8 8 9 10 12 13 15 16 16 17 17 17 58 36 36 32 25 22 22 22 20 19 15 13 13 16 16 19 18 18 21 32 49 44 37 35 42
76 81 72 61 56 34 10 6 8 9 11 14 16 17 17 18 18 18 18 19 18 20 69 31 27 24 24 24 23 21 18 15 14 15 15 17 26 28 29 34 55 62 48 49 48 48 80
83 90 70 59 33 9 7 9 13 16 16 16 16 16 17 18 18 19 19 19 18 32 26 27 22 21 20 24 20 21 20 24 27 26 24 29 41 44 49 48 52 52 55 80 80 89 82
82 89 72 42 9 8 12 16 16 16 16 16 16 17 17 18 18 19 20 17 26 21 29 30 26 19 17 26 28 36 33 33 43 46 38 47 47 43 56 60 63 59 54 68 87 73 72
91 86 65 18 8 15 17 17 17 17 17 17 17 18 18 18 19 20 20 17 21 25 24 24 19 17 28 40 40 40 40 52 56 44 38 43 49 50 55 60 60 57 62 78 91 69 68
92 84 38 9 16 18 18 18 17 18 19 20 20 19 18 20 20 20 20 21 24 25 26 24 22 21 24 31 47 53 50 60 57 57 42 60 73 50 52 60 63 65 78 68 61 96 88
92 67 12 16 18 18 18 17 17 18 19 21 22 21 22 19 18 22 22 30 37 36 35 33 26 31 36 36 38 46 50 63 76 72 76 84 90 59 66 63 65 76 97 96 81 55 90
88 14 16 19 19 18 14 13 11 14 20 23 26 23 25 22 24 26 31 44 42 41 30 26 27 27 30 40 52 54 56 65 77 74 83 87 92 85 59 58 62 77 81 87 67 65 70
45 17 19 19 17 10 8 6 10 17 21 28 29 27 27 30 36 42 46 49 51 47 46 53 57 49 52 58 64 60 60 60 86 87 94 81 88 79 62 82 82 90 84 72 68 88 81
38 22 19 18 9 6 4 7 11 16 28 32 29 29 49 65 67 57 54 55 72 82 74 64 71 77 73 74 70 73 68 66 86 75 79 96 94 90 92 63 92 97 77 71 82 94 84
37 17 18 9 4 3 5 6 11 23 34 32 26 46 62 48 63 87 99 99 97 87 97 99 93 83 84 82 74 74 76 86 89 87 90 96 92 80 73 74 92 97 89 94 93 93 94
20 14 11 3 2 3 5 8 16 32 34 25 37 72 81 82 76 92 91 81 96 91 92 95 98 92 82 92 88 85 72 87 96 94 91 92 91 90 96 72 99 98 77 85 90 95 87
10 7 3 2 3 4 5 12 23 35 23 35 66 82 99 91 85 94 90 93 89 79 84 74 80 96 98 82 94 88 93 92 96 92 81 90 98 90 96 69 78 100 100 97 90 84 88
5 2 2 2 3 4 10 18 35 23 35 42 65 94 100 64 89 90 84 88 98 99 99 90 94 98 96 86 69 71 87 89 98 92 100 96 82 100 97 80 95 90 83 90 86 82 89
2 2 2 3 4 8 15 34 19 34 42 28 40 84 100 90 79 85 89 99 100 96 82 97 98 98 97 94 68 96 100 84 81 85 91 97 96 100 98 78 97 91 83 76 78 88 88
2 2 3 5 8 17 32 18 36 42 27 12 15 80 100 99 80 100 100 100 85 94 100 98 93 83 93 71 94 96 83 95 98 92 85 86 95 100 100 93 95 97 95 89 98 98 81
3 3 5 8 19 26 19 36 39 22 11 10 14 88 98 94 86 95 91 98 100 100 98 90 97 86 75 74 86 96 93 96 90 99 100 99 97 96 98 96 100 98 100 100 99 94 90
3 5 8 29 18 25 38 35 14 10 10 11 14 21 70 95 100 95 84 91 94 99 96 87 89 80 96 95 81 83 98 99 95 85 90 84 91 99 100 99 100 100 100 99 100 94 91
6 9 33 16 28 39 28 11 10 11 12 12 14 18 33 71 88 100 100 100 100 94 89 87 95 100 99 91 92 96 100 100 99 90 94 99 99 96 95 100 100 100 100 100 100 97 93

GFSGBSN_700_rhum_300.txt.gz
RH
50 50 50 49 48 46 42 40 39 38 36 34 28 22 16 12 8 5 4 4 3 3 3 3 3 3 2 2 2 2 2 3 3 3 3 4 4 4 4 4 4 5 6 6 7 8 10
54 55 55 53 49 46 44 44 43 42 43 42 39 34 27 20 14 12 10 7 5 4 4 4 4 4 3 3 3 3 3 3 3 4 4 4 4 5 5 5 5 6 6 7 7 8 9
63 62 60 56 52 49 47 46 44 43 41 32 28 27 23 19 16 12 8 6 6 5 4 4 4 4 4 4 4 4 3 3 3 4 4 5 5 6 6 6 6 6 8 10 9 9 12
63 64 64 61 56 53 50 47 46 44 41 38 36 37 37 32 28 24 13 7 5 5 5 5 5 5 5 5 4 4 4 4 4 4 5 5 6 7 8 8 9 9 10 10 9 9 10
64 64 64 60 58 57 52 48 47 39 29 18 11 6 5 5 5 5 5 5 5 6 5 5 5 5 5 6 6 6 5 6 6 6 7 8 9 10 10 10 11 12 12 12 13 13 12
72 71 67 65 63 57 49 48 49 45 34 18 8 6 6 6 6 6 6 6 6 6 6 6 5 6 6 6 6 6 6 7 7 7 8 8 8 8 9 10 12 12 14 17 24 23 27
78 72 70 64 63 55 46 48 46 43 30 14 7 6 6 6 6 6 7 7 7 8 8 8 8 9 10 9 9 9 9 9 9 9 9 10 11 11 13 14 15 17 26 35 36 38 34
84 75 73 65 63 51 50 47 43 33 16 8 6 6 7 8 8 8 9 10 12 12 13 12 12 12 12 12 12 13 13 14 14 14 14 14 14 16 16 16 17 24 34 35 30 25 21
82 77 74 66 63 52 49 44 36 23 10 7 7 8 9 9 10 12 12 13 13 13 15 14 13 13 14 14 14 14 15 15 16 16 17 18 17 18 18 20 23 24 21 16 15 15 14
89 81 79 72 65 57 50 39 25 12 8 9 10 10 13 13 13 14 14 15 16 16 16 16 16 17 16 16 17 17 16 18 19 18 19 18 17 18 18 16 16 16 16 16 17 18 23
99 86 82 76 69 66 56 40 19 10 11 11 12 14 14 14 14 16 17 18 18 18 38 23 21 20 19 20 19 21 21 20 20 20 20 19 18 17 17 16 16 18 18 21 24 36 45
99 99 93 78 72 69 61 34 14 12 13 14 14 14 12 13 15 18 19 20 20 20 27 20 20 20 21 21 21 21 22 23 23 22 20 19 18 18 18 19 24 30 31 36 45 51 69
100 99 97 89 81 74 60 25 14 14 15 14 13 10 10 12 16 20 22 22 21 22 21 24 21 21 22 24 25 25 24 23 23 23 23 23 23 23 24 27 41 44 43 56 62 87 73
100 99 97 98 92 82 57 19 16 16 15 13 9 7 8 12 20 23 24 24 22 20 19 20 23 26 29 27 26 25 26 26 28 30 31 32 34 31 38 40 47 49 49 49 77 90 77
99 100 98 98 98 90 43 18 17 16 13 8 5 5 8 16 22 24 25 25 21 20 21 21 23 24 25 26 29 29 31 33 34 35 37 37 45 44 44 49 48 58 60 57 58 61 96
100 100 99 97 98 70 24 18 18 13 9 5 3 5 11 21 25 26 24 22 21 21 23 25 30 32 34 33 34 35 36 36 36 40 45 49 42 37 42 60 64 63 62 68 76 100 100
100 100 98 98 98 54 30 20 16 10 5 3 3 7 20 26 26 23 19 20 21 26 30 35 44 49 49 47 40 38 44 42 43 47 51 54 57 52 44 50 61 70 74 82 83 81 97
99 98 98 99 91 89 41 18 14 8 2 3 4 17 26 27 24 18 22 29 30 42 50 56 56 56 61 68 65 54 48 46 50 55 60 63 59 60 64 60 54 53 63 60 93 91 98
99 98 100 96 98 87 25 16 9 3 2 3 10 26 27 25 16 19 25 35 42 51 60 71 81 79 77 74 72 66 64 61 57 59 62 66 82 90 69 64 56 58 65 91 86 100 96
99 98 97 98 97 34 17 10 4 3 2 6 20 29 27 16 16 24 40 50 49 58 68 77 92 95 98 93 88 91 85 75 75 82 77 82 81 65 64 43 41 56 61 68 96 100 85
99 98 98 98 95 27 9 4 3 2 4 13 26 27 15 14 17 39 58 58 62 54 65 74 91 86 90 96 90 95 87 76 80 77 90 100 98 88 73 60 54 66 69 79 96 81 100
98 99 98 97 76 14 4 3 2 3 8 24 28 16 12 16 27 33 40 38 39 34 59 62 88 84 98 99 100 96 95 99 90 78 75 96 92 99 97 88 70 91 70 74 94 87 100
98 98 97 95 22 5 3 2 2 6 22 29 13 14 23 25 27 29 31 36 39 60 47 64 98 98 93 79 90 89 92 92 99 98 86 91 99 100 95 86 88 99 60 65 68 88 91
98 98 94 20 6 6 2 3 5 18 27 12 16 28 27 21 18 18 27 40 59 86 99 91 99 100 94 98 98 98 95 98 99 99 95 90 100 100 96 96 100 66 62 70 77 100 100
98 95 48 38 16 3 3 5 18 25 12 18 28 24 16 15 14 16 39 55 68 97 99 97 85 92 100 100 98 86 57 54 53 54 50 60 99 98 98 97 88 72 78 88 99 100 100
96 68 45 29 8 3 6 20 22 13 23 26 15 11 11 16 29 41 56 72 100 100 100 99 89 80 80 99 100 98 81 70 75 93 74 100 100 100 99 98 99 76 87 99 100 100 97
80 51 28 7 3 6 24 18 14 24 19 12 12 13 15 21 56 77 100 100 100 99 98 90 93 94 80 81 95 100 92 74 86 96 99 100 100 98 95 99 99 99 100 100 100 93 92
46 24 5 4 11 25 14 16 23 16 13 14 15 16 18 24 29 39 68 93 100 100 100 95 89 85 69 85 100 88 98 99 100 100 100 100 100 100 100 100 98 94 99 99 98 99 100
5 4 6 22 22 13 21 22 15 15 16 16 14 15 24 32 41 46 43 42 59 95 97 80 92 100 97 90 100 98 99 95 100 100 100 100 100 100 100 100 98 100 100 100 100 100 100

GFSGBSN_700_rhum_306.txt.gz
RH
53 52 54 52 48 44 44 44 44 42 41 39 38 38 38 38 37 35 33 29 23 20 15 11 8 5 4 4 3 3 3 3 2 2 2 2 3 3 4 4 4 4 4 4 5 5 6
61 59 58 55 52 47 45 45 44 42 40 36 34 30 32 32 33 30 28 24 22 18 15 12 12 11 8 8 8 7 5 4 4 3 3 3 3 3 4 4 4 5 5 5 5 6 7
64 59 59 58 56 52 47 47 45 40 36 30 21 16 14 16 12 9 10 11 12 12 10 9 8 8 8 8 7 6 6 6 5 5 4 4 4 4 4 4 4 5 6 6 6 7 10
69 62 60 60 58 53 50 49 44 37 36 33 23 12 6 6 6 6 6 6 6 5 5 5 5 5 5 5 5 5 5 5 6 6 5 5 6 6 6 6 6 7 8 7 6 6 9
79 74 66 63 60 56 52 50 42 37 36 33 22 10 7 6 6 6 6 6 6 6 7 8 8 8 6 6 6 6 7 7 7 7 7 7 7 7 8 8 10 10 10 9 9 9 9
83 83 78 63 61 57 54 49 41 37 35 28 16 9 7 7 7 7 7 8 9 9 10 11 11 11 11 11 12 12 12 12 11 11 11 11 10 10 10 10 10 10 10 11 12 13 13
86 87 82 71 66 59 55 47 42 39 33 22 11 8 8 8 7 8 9 10 11 12 13 13 14 15 15 14 14 13 12 12 12 12 12 13 13 12 13 13 14 14 15 17 18 21 24
93 94 89 76 71 62 58 52 47 40 30 18 13 10 9 8 9 10 10 10 11 15 13 13 15 16 15 15 13 12 12 13 14 14 14 14 14 15 15 15 16 17 18 20 23 28 36
94 100 96 94 78 75 68 62 56 47 34 22 17 12 10 10 9 11 10 11 12 14 16 16 16 15 14 13 13 14 14 14 15 15 16 17 17 17 17 18 19 20 22 24 29 29 29
100 97 100 98 93 86 79 68 62 54 39 26 20 14 12 11 13 11 10 11 11 12 17 18 15 15 15 15 15 15 16 16 17 18 18 18 17 18 18 18 19 19 20 21 22 20 20
88 100 99 100 96 92 96 73 67 59 44 32 23 16 13 12 11 10 12 10 12 16 39 22 19 18 16 16 17 18 18 17 19 20 20 18 20 21 22 22 21 21 20 20 20 21 28
97 96 97 99 98 99 95 92 80 72 53 37 24 16 13 13 11 10 9 10 14 18 26 20 19 18 17 18 18 19 20 20 22 21 21 22 22 23 22 21 22 22 23 26 31 38 70
100 96 93 97 100 98 93 94 96 88 61 38 25 17 14 12 10 8 8 13 18 18 20 20 18 18 19 19 17 16 17 19 23 26 24 24 24 25 26 26 28 29 31 47 60 73 71
100 100 99 93 100 100 85 94 95 90 53 32 23 18 14 12 8 8 11 16 20 19 19 18 19 18 18 16 16 17 19 20 22 25 29 33 30 27 28 29 29 31 33 39 77 76 61
100 100 99 99 100 100 100 97 95 96 76 46 26 22 16 11 8 10 13 21 22 20 18 17 16 14 16 16 17 22 28 32 32 34 32 30 34 35 34 34 36 39 45 46 58 64 97
99 99 100 100 99 99 99 98 96 98 94 54 35 23 18 12 10 10 14 22 21 17 13 14 16 14 18 21 26 35 40 36 38 40 42 42 44 45 44 44 46 47 50 62 70 97 100
100 97 99 99 99 98 98 98 97 94 92 71 36 23 21 14 10 11 20 23 17 15 13 14 16 20 22 28 37 47 46 42 47 51 52 55 58 56 57 53 50 52 59 64 68 72 98
100 100 99 99 98 98 98 94 97 97 90 64 29 16 18 9 11 17 24 21 18 14 15 20 23 26 31 43 55 59 58 57 56 61 62 61 66 70 64 63 64 56 54 54 81 84 99
100 100 99 99 98 98 98 98 98 98 91 58 19 10 9 6 14 22 25 21 14 13 16 25 30 37 40 61 62 69 74 64 73 69 72 67 78 89 83 65 65 72 61 67 72 79 79
99 99 99 99 99 98 98 99 99 98 89 49 13 6 9 12 21 26 23 17 13 17 26 30 38 45 49 68 82 92 92 90 89 89 91 96 96 87 78 59 57 57 55 56 57 91 76
99 99 99 99 99 100 99 99 99 98 95 37 9 9 14 17 21 26 17 14 14 22 36 40 54 38 45 76 75 93 92 89 86 87 86 97 98 100 84 90 91 84 94 92 98 80 76
99 99 98 99 99 99 99 98 98 98 49 18 17 20 15 19 27 21 15 16 20 27 40 47 40 48 73 81 89 100 100 91 92 84 92 96 96 100 98 75 81 96 87 92 91 98 99
99 99 99 99 99 99 99 98 98 64 63 46 66 23 29 41 24 14 18 20 23 23 33 32 43 74 93 78 94 91 90 75 86 100 97 100 99 99 96 86 100 99 84 84 70 91 100
99 99 99 99 100 99 98 97 95 88 82 71 42 69 57 23 16 17 16 15 18 25 39 46 78 97 84 97 91 75 62 67 66 70 77 94 82 93 99 92 97 82 84 68 93 100 100
99 99 98 100 99 98 98 96 95 94 88 80 86 55 18 16 15 14 15 18 22 32 48 61 69 79 80 77 78 83 77 84 65 60 58 67 88 100 98 96 89 96 80 85 82 94 87
100 99 100 99 97 97 97 95 94 92 93 84 35 19 17 15 16 20 21 23 25 36 59 72 64 90 83 97 92 100 93 72 78 84 68 60 72 99 98 98 97 86 99 100 98 99 88
100 99 97 97 97 96 94 94 94 86 40 39 23 18 15 16 18 22 30 44 64 81 81 65 67 72 87 83 97 100 92 84 100 94 87 86 91 100 100 100 100 100 100 100 99 94 84
98 96 96 97 95 94 93 87 52 22 31 23 18 16 17 19 21 26 43 48 60 64 58 59 79 95 99 100 100 97 100 100 98 98 99 100 96 99 100 100 100 99 100 99 100 100 100
96 97 96 93 93 80 34 23 20 32 23 17 17 17 17 19 27 39 54 70 62 70 76 100 100 100 100 100 100 100 100 100 100 98 100 100 97 100 98 100 100 100 100 100 100 100 100